Regional Weather Roundup
Issued by NWS

Home | Current Version | Previous Version | Text Only | Print | Product List | Glossary On
Versions: 1 2 3 4 5 6 7 8 9 10 11 12 13 14 15 16 17 18 19 20 21 22 23 24 25 26 27 28 29 30 31 32 33 34 35 36 37 38 39 40 41 42 43 44 45 46 47 48 49 50
576
ASUS43 KDTX 191010
RWRMI
MICHIGAN HOURLY REGIONAL WEATHER ROUNDUP
NATIONAL WEATHER SERVICE DETROIT/PONTIAC MI
500 AM EST SUN FEB 19 2017

NOTE: "FAIR" INDICATES FEW OR NO CLOUDS BELOW 12,000 FEET WITH NO
SIGNIFICANT WEATHER AND/OR OBSTRUCTION TO VISIBILITY.

MIZ047>049-052>055-059>063-066>070-074>076-081>083-191100-
SOUTHEAST LOWER MICHIGAN

CITY           SKY/WX    TMP DP  RH WIND       PRES   REMARKS
ADRIAN         PTCLDY    35  33  92 W7        29.89R WCI  29
ALMA           CLOUDY    36  31  85 W3        29.86R
ANN ARBOR      PTCLDY    42  35  76 W7        29.87R
BAD AXE        PTCLDY    35  32  87 W3        29.84R
CARO           PTCLDY    34  32  93 CALM      29.84R
DETROIT CITY   PTCLDY    43  36  76 W5        29.86R
DETROIT        PTCLDY    40  34  79 SW3       29.87R
FLINT          PTCLDY    39  34  82 W6        29.86R WCI  35
GROSSE ILE     PTCLDY    36  33  89 SW3       29.86R
HILLSDALE      CLEAR     36  32  87 W3        29.88R
HOWELL         PTCLDY    36  32  87 W5        29.86R WCI  32

CITY           SKY/WX    TMP DP  RH WIND       PRES   REMARKS
JACKSON        CLEAR     32  29  88 W6        29.88R WCI  26
LAMBERTVILLE   PTCLDY    43  37  80 CALM      29.89R
LANSING        PTCLDY    41  31  67 W3        29.87R
LAPEER         FAIR      39  35  85 W3        29.85R
MASON          PTCLDY    33  32  99 CALM      29.87R FOG
MONROE         PTCLDY    36  35  94 S3        29.87R
MT. CLEMENS    MOCLDY    43  37  79 W5        29.83R
PONTIAC        CLOUDY    40  34  79 W5        29.84R
PORT HOPE        N/A     39  34  82 SW7       29.81R WCI  34
PORT HURON     CLOUDY    39  36  87 W5        29.84R
TRI CITIES     CLOUDY    38  35  89 W9        29.85R WCI  31
MIDLAND        FAIR      39  32  76 CALM      29.84R
TROY           CLOUDY    45  33  64 W6        29.87R
SAGINAW HB     CLOUDY    39  32  75 W6        29.84R WCI  35
$$
MIZ043>046-050>051-056>058-064>065-071>073-077>080-191100-
SOUTHWEST LOWER MICHIGAN

CITY           SKY/WX    TMP DP  RH WIND       PRES   REMARKS
BATTLE CREEK   CLEAR     36  32  85 W6        29.89R WCI  31
BENTON HARBOR  CLOUDY    30  28  92 CALM      29.91R
BIG RAPIDS     PTCLDY    32  31  98 CALM      29.86R
COLDWATER      CLEAR     33  31  94 SW5       29.90R WCI  28
FREMONT        FAIR      28  28 100 CALM      29.88R FOG
HOLLAND        CLEAR     37  32  82 W3        29.90R
GRAND RAPIDS   PTCLDY    39  32  76 W8        29.88R WCI  33
IONIA          FAIR      38  33  82 W7        29.87R WCI  33
KALAMAZOO      CLOUDY    34  30  85 CALM      29.90R
LUDINGTON      PTCLDY    33  32  93 CALM      29.88R
MARSHALL       CLEAR     32  32  99 CALM      29.89R
MOUNT PLEASANT CLOUDY    39  32  77 CALM      29.84S
MUSKEGON       CLEAR     30  27  88 CALM      29.90R
SOUTH HAVEN    PTCLDY    30  29  96 CALM      29.91R
$$
MIZ016>042-191100-
NORTHERN LOWER MICHIGAN

CITY           SKY/WX    TMP DP  RH WIND       PRES   REMARKS
ALPENA         CLEAR     38  32  79 W6        29.81R WCI  33
BEAVER ISLAND  CLEAR     40  31  70 W6        29.82R
BELLAIRE       CLEAR     26  26  99 CALM      29.85R
CADILLAC       PTCLDY    34  29  83 W5        29.83R WCI  29
CHARLEVOIX     PTCLDY    39  31  73 W7        29.85R WCI  34
FRANKFORT      CLEAR     32  29  88 CALM      29.87R
GAYLORD        PTCLDY    37  28  70 W5        29.81R WCI  33
GRAYLING       MOCLDY    29  28  96 CALM      29.83R
HARBOR SPRINGS CLEAR     33  31  91 CALM      29.81R
HOUGHTON LAKE  CLOUDY    33  30  88 CALM      29.83R
MANISTEE       PTCLDY    28  26  92 CALM      29.87R
OSCODA         CLOUDY    37  31  82 SW8       29.81R WCI  30
PELLSTON       CLEAR     30  25  81 NW5       29.81R WCI  25
ROGERS CITY    CLEAR     42  31  67 W7        29.80R
TRAVERSE CITY  CLEAR     34  30  85 CALM      29.84R
$$
MIZ007>008-015-191100-
EASTERN UPPER MICHIGAN

CITY           SKY/WX    TMP DP  RH WIND       PRES   REMARKS
KINROSS        CLEAR     36  29  75 NW6       29.77R WCI  31
MACKINAC ISLAN CLEAR     34  30  85 W9        29.79R WCI  27
NEWBERRY       CLEAR     38  31  74 NW8       29.79R WCI  33
S. S. MARIE    CLEAR     38  32  79 NW7G16    29.76R WCI  33
MUNISING         N/A     38  31  76 N10       29.84R WCI  31
$$
MIZ004>006-011>014-085-191100-
CENTRAL UPPER MICHIGAN

CITY           SKY/WX    TMP DP  RH WIND       PRES   REMARKS
MANISTIQUE     CLEAR     39  31  73 NW7       29.82R WCI  34
ESCANABA       CLOUDY    38  28  67 W7        29.86R WCI  33
MENOMINEE      CLOUDY    42  29  59 NW3       29.87R
SAWYER-GWINN   PTCLDY    35  28  77 NW6       29.85R WCI  30
$$
MIZ001>003-009>011-084-191100-
WESTERN UPPER MICHIGAN

CITY           SKY/WX    TMP DP  RH WIND       PRES   REMARKS
IRON MOUNTAIN  CLOUDY    39  26  59 NW5       29.86R
HOUGHTON       CLEAR     33  28  81 NW8       29.86R WCI  26
COPPER HARBOR    N/A     37  32  82 N10       29.86R WCI  30
IRONWOOD       CLOUDY    31  28  89 CALM      29.90R
$$

ABBREVIATIONS USED IN REMARKS
   TC - TEMPERATURE IN CELSIUS
  WCI - WIND CHILL INDEX
   HX - HEAT INDEX
  VSB - VISIBILITY





USA.gov is the U.S. government's official web portal to all federal, state and local government web resources and services.